Location: ???? ?????
(37.9132°N, 22.9869°E)
Time: 06:45:36
(UTC+00:00)

Cosmos 1727 Rocket - Pass Details

Date: 04 August 2024
Orbit: 960 x 997 km, 82.9° (Epoch: 14 September)

Event Time Altitude Azimuth Distance (km) Brightness Sun altitude
Rises 18:27:19 0° 357° (N) 3,689 7.5 -10.3°
Reaches altitude 10° 18:29:55 10° 2° (N) 2,732 6.8 -10.7°
Maximum altitude 18:36:04 57° 80° (E) 1,131 4.1 -11.8°
Drops below altitude 10° 18:42:06 10° 159° (SSE) 2,693 5.8 -12.8°
Enters shadow 18:42:06 10° 159° (SSE) 2,693 5.8 -12.8°
